This demonstration page uses our WeatherBlox Daily Observations layout. Learn more.

Left ArrowRight Arrow

Hourly Observations for June 23, 2021

Temp ( °F °C ) Dew Point ( °F °C ) Humidity (%) Winds ( mph kmh ) Pressure ( in mb ) Visibility ( mi km ) Precip ( " mm )
12:53 am 00:53 Clear 54 12.2 52 11.1 93 93 N N/A 30.10 1019 10 16 N/A
1:53 am 01:53 Clear 53 11.7 51 10.6 93 93 N N/A 30.12 1020 10 16 N/A
2:53 am 02:53 Clear 53 11.7 51 10.6 93 93 N N/A 30.12 1020 10 16 N/A
3:53 am 03:53 Clear 52 11.1 51 10.6 97 97 N N/A 30.12 1020 10 16 N/A
4:53 am 04:53 Clear 52 11.1 50 10 93 93 N N/A 30.13 1020 10 16 N/A
5:53 am 05:53 Clear 51 10.6 50 10 96 96 N N/A 30.15 1021 10 16 N/A
6:53 am 06:53 Sunny 53 11.7 51 10.6 93 93 N N/A 30.16 1022 10 16 N/A
7:53 am 07:53 Sunny 58 14.4 52 11.1 81 81 N N/A 30.18 1022 10 16 N/A
8:53 am 08:53 Sunny 63 17.2 52 11.1 68 68 E 6 9 30.18 1022 10 16 N/A
9:53 am 09:53 Sunny 68 20 47 8.3 47 47 ESE 5 7 30.20 1023 10 16 N/A
10:53 am 10:53 Sunny 70 21.1 48 8.9 46 46 VRB 3 6 30.20 1023 10 16 N/A
11:53 am 11:53 Sunny 73 22.8 47 8.3 40 40 VRB 5 7 30.21 1023 10 16 N/A
12:53 pm 12:53 Sunny 74 23.3 47 8.3 38 38 VRB 3 6 30.21 1023 10 16 N/A
1:53 pm 13:53 Sunny 76 24.4 49 9.4 39 39 S 6 9 30.19 1022 10 16 N/A
2:53 pm 14:53 Sunny 75 23.9 48 8.9 39 39 VRB 5 7 30.18 1022 10 16 N/A
3:53 pm 15:53 Sunny 76 24.4 49 9.4 39 39 VRB 3 6 30.17 1022 10 16 N/A
4:53 pm 16:53 Sunny 76 24.4 49 9.4 39 39 VRB 7 11 30.17 1022 10 16 N/A
5:53 pm 17:53 Sunny 77 25 50 10 39 39 N N/A 30.16 1022 10 16 N/A
6:53 pm 18:53 Sunny 76 24.4 50 10 40 40 VRB 5 7 30.16 1021 10 16 N/A
7:53 pm 19:53 Sunny 75 23.9 50 10 41 41 VRB 3 6 30.15 1021 10 16 N/A
8:53 pm 20:53 Sunny 72 22.2 50 10 46 46 SSE 3 6 30.15 1021 10 16 N/A
9:53 pm 21:53 Clear 67 19.4 53 11.7 61 61 N N/A 30.14 1021 7 11 N/A
10:53 pm 22:53 Clear 61 16.1 55 12.8 81 81 N N/A 30.15 1021 10 16 N/A
11:53 pm 23:53 Clear 60 15.6 56 13.3 86 86 N N/A 30.16 1021 10 16 N/A

Powered by AerisWeather